Location: Bayfield
(43.5596°N, 81.6969°W)
Time: 13:20:44
(UTC-04:00)

ARIANE 6 FM1 Upper Stage - Visible Passes

Search period start: 08 June 2026 00:00
Search period end: 18 June 2026 00:00
Orbit: 528 x 599 km, 62.0° (Epoch: 8 June)

Date Brightness Start Highest point End Pass type
(mag) Time Alt. Az. Time Alt. Az. Time Alt. Az.
8 Jun 2.6 03:45:10 33° SW 03:47:01 87° SE 03:51:09 10° NE visible
9 Jun 4.9 02:08:29 14° ESE 02:08:29 14° ESE 02:10:08 10° E visible
9 Jun 2.8 03:44:26 30° WSW 03:46:22 66° NW 03:50:28 10° NE visible
10 Jun 4.5 02:07:42 20° ESE 02:07:42 20° ESE 02:10:10 10° ENE visible
10 Jun 3.3 03:43:38 25° WSW 03:45:45 46° NW 03:49:44 10° NNE visible
11 Jun 4.0 02:06:51 28° ESE 02:06:51 28° ESE 02:09:53 10° ENE visible
11 Jun 3.9 03:42:47 19° W 03:45:10 34° NW 03:48:56 10° NNE visible
12 Jun 3.4 02:05:57 41° ESE 02:05:57 41° ESE 02:09:26 10° NE visible
12 Jun 4.4 03:41:53 14° W 03:44:37 26° NW 03:48:05 10° NNE visible
13 Jun 2.8 02:04:59 62° ESE 02:04:59 62° ESE 02:08:52 10° NE visible
13 Jun 4.8 03:40:58 10° W 03:44:05 20° NW 03:47:11 10° NNE visible
14 Jun 2.5 02:03:58 85° SW 02:04:04 88° WNW 02:08:13 10° NE visible
14 Jun 5.1 03:40:59 10° WNW 03:43:36 16° NNW 03:46:11 10° N visible
15 Jun 5.1 00:26:56 11° E 00:26:56 11° E 00:27:19 10° ENE visible
15 Jun 2.9 02:02:52 56° W 02:03:24 62° NW 02:07:29 10° NNE visible
15 Jun 5.3 03:41:12 10° WNW 03:43:08 13° NNW 03:45:03 10° N visible
16 Jun 4.6 00:25:46 17° E 00:25:46 17° E 00:27:15 10° ENE visible
16 Jun 3.5 02:01:41 36° W 02:02:45 44° NW 02:06:42 10° NNE visible
16 Jun 5.5 03:41:52 10° NW 03:42:42 10° NNW 03:43:32 10° NNW visible
17 Jun 4.1 00:24:30 26° E 00:24:30 26° E 00:26:53 10° ENE visible
17 Jun 4.1 02:00:24 23° W 02:02:08 32° NW 02:05:52 10° NNE visible
